Weather History for LEMG - March, 2013

Change the Weather History Date:

Friday, March 29, 2013

  Actual Average Record
Temperature  
Mean Temperature 66 °F -  
Max Temperature 76 °F 69 °F 87 °F (2015)
Min Temperature 57 °F 51 °F 46 °F (2007)
Cooling Degree Days 2    
Growing Degree Days 16 (Base 50)    
Moisture  
Dew Point 50 °F    
Average Humidity 60    
Maximum Humidity 82    
Minimum Humidity 25    
Precipitation  
Precipitation 0.08 in 0.05 in - ()
Sea Level Pressure  
Sea Level Pressure 30.03 in    
Wind  
Wind Speed 4 mph ()    
Max Wind Speed 8 mph    
Max Gust Speed -    
Visibility 6.7 miles    
Events      
Averages and records for this station are not official NWS values.
T = Trace of Precipitation, MM = Missing Value Source: Averaged Metar Reports

Daily Weather History Graph

Daily Weather History Graph

Search for Another Location

Airport or City:

Trip Planner

Search our weather history database for the weather conditions in past years. The results will help you decide how hot, cold, wet, or windy it might be!

Date:

Astronomy

Mar. 29, 2013 Rise Set
Actual Time 7:08 AM CET 7:37 PM CET
Civil Twilight 6:42 AM CET 8:03 PM CET
Nautical Twilight 6:11 AM CET 8:34 PM CET
Astronomical Twilight 5:40 AM CET 9:05 PM CET
Moon 10:16 PM CET (3/29) 8:11 AM CET (3/29)
Length of Visible Light 13h 21m
Length of Day
12h 29m
Waning Gibbous, 95% of the Moon is Illuminated
Mar 29
Waning Gibbous
Apr 3
Last Quarter
Apr 10
New
Apr 18
First Quarter
Apr 25
Full

Hourly Weather History & Observations

Time (CET) Temp. Dew Point Humidity Pressure Visibility Wind Dir Wind Speed Gust Speed Precip Events Conditions
12:00 AM 57.2 °F 48.2 °F 72% 30.06 in 6.2 mi West 4.6 mph - N/A   Partly Cloudy
12:30 AM 59.0 °F 48.2 °F 67% 30.06 in 6.2 mi West 4.6 mph - N/A   Partly Cloudy
1:00 AM 59 °F 49 °F 62% 30.08 in 9 mi 1.2 mph - -   Scattered Clouds
1:00 AM 57.2 °F 48.2 °F 72% 30.06 in 6.2 mi Variable 1.2 mph - N/A   Partly Cloudy
1:30 AM 57.2 °F 48.2 °F 72% 30.06 in 6.2 mi Variable 1.2 mph - N/A   Partly Cloudy
2:00 AM 59.0 °F 48.2 °F 67% 30.06 in 6.2 mi West 4.6 mph - N/A   Partly Cloudy
2:30 AM 59.0 °F 48.2 °F 67% 30.06 in 6.2 mi West 2.3 mph - N/A   Partly Cloudy
3:00 AM 59.0 °F 48.2 °F 67% 30.06 in 6.2 mi West 4.6 mph - N/A   Scattered Clouds
3:30 AM 59.0 °F 50.0 °F 72% 30.06 in 6.2 mi WSW 3.5 mph - N/A   Scattered Clouds
4:00 AM 59.0 °F 50.0 °F 72% 30.06 in 6.2 mi West 2.3 mph - N/A   Scattered Clouds
4:30 AM 59.0 °F 48.2 °F 67% 30.06 in 6.2 mi West 4.6 mph - N/A   Scattered Clouds
5:00 AM 59.0 °F 50.0 °F 72% 30.06 in 6.2 mi West 8.1 mph - N/A   Scattered Clouds
5:30 AM 57.2 °F 50.0 °F 77% 30.04 in 6.2 mi WNW 2.3 mph - N/A   Scattered Clouds
6:00 AM 59.0 °F 50.0 °F 72% 30.04 in 6.2 mi West 3.5 mph - N/A   Scattered Clouds
6:30 AM 57.2 °F 50.0 °F 77% 30.04 in 6.2 mi Variable 2.3 mph - N/A   Scattered Clouds
7:00 AM 60 °F 50 °F 62% 30.05 in 12 mi 2.3 mph - -   Scattered Clouds
7:00 AM 59.0 °F 50.0 °F 72% 30.04 in 6.2 mi Variable 2.3 mph - N/A   Partly Cloudy
7:30 AM 59.0 °F 50.0 °F 72% 30.04 in 6.2 mi SW 1.2 mph - N/A   Partly Cloudy
8:00 AM 57.2 °F 50.0 °F 77% 30.04 in 6.2 mi WNW 1.2 mph - N/A   Partly Cloudy
8:30 AM 57.2 °F 51.8 °F 82% 30.04 in 6.2 mi WNW 5.8 mph - N/A   Partly Cloudy
9:00 AM 60.8 °F 51.8 °F 72% 30.06 in 6.2 mi West 5.8 mph - N/A   Partly Cloudy
9:30 AM 64.4 °F 50.0 °F 59% 30.06 in 6.2 mi West 5.8 mph - N/A   Scattered Clouds
10:00 AM 62.6 °F 48.2 °F 59% 30.06 in 6.2 mi Variable 2.3 mph - N/A   Scattered Clouds
10:30 AM 64.4 °F 48.2 °F 56% 30.06 in 6.2 mi Variable 2.3 mph - N/A   Scattered Clouds
11:00 AM 64.4 °F 48.2 °F 56% 30.06 in 6.2 mi Variable 2.3 mph - N/A   Scattered Clouds
11:30 AM 66.2 °F 48.2 °F 52% 30.06 in 6.2 mi Variable 1.2 mph - N/A   Scattered Clouds
12:00 PM 66.2 °F 48.2 °F 52% 30.06 in 6.2 mi NW 4.6 mph - N/A   Scattered Clouds
12:30 PM 68.0 °F 48.2 °F 49% 30.06 in 6.2 mi WSW 4.6 mph - N/A   Scattered Clouds
1:00 PM 70 °F 46 °F 32% 30.07 in 19 mi West 8.1 mph - -   Scattered Clouds
1:00 PM 69.8 °F 48.2 °F 46% 30.04 in 6.2 mi West 8.1 mph - N/A   Scattered Clouds
1:30 PM 69.8 °F 50.0 °F 49% 30.04 in 6.2 mi NW 6.9 mph - N/A   Partly Cloudy
2:00 PM 71.6 °F 48.2 °F 43% 30.04 in 6.2 mi NW 2.3 mph - N/A   Partly Cloudy
2:30 PM 71.6 °F 50.0 °F 46% 30.01 in 6.2 mi West 4.6 mph - N/A   Partly Cloudy
3:00 PM 73.4 °F 50.0 °F 44% 30.01 in 6.2 mi West 2.3 mph - N/A   Partly Cloudy
3:30 PM 73.4 °F 51.8 °F 47% 29.98 in 6.2 mi South 6.9 mph - N/A   Partly Cloudy
4:00 PM 73.4 °F 51.8 °F 47% 29.98 in 6.2 mi SSE 8.1 mph - N/A   Partly Cloudy
4:30 PM 73.4 °F 50.0 °F 44% 29.98 in 6.2 mi South 6.9 mph - N/A   Partly Cloudy
5:30 PM 73.4 °F 51.8 °F 47% 29.95 in 6.2 mi SSE 4.6 mph - N/A   Partly Cloudy
6:00 PM 75.2 °F 50.0 °F 41% 29.95 in 6.2 mi Variable 2.3 mph - N/A   Partly Cloudy
6:30 PM 73.4 °F 48.2 °F 41% 29.95 in 6.2 mi NNW 5.8 mph - N/A   Partly Cloudy
7:00 PM 76 °F 47 °F 25% 29.98 in 9 mi WNW 8.1 mph - -   Scattered Clouds
7:00 PM 73.4 °F 48.2 °F 41% 29.95 in 6.2 mi WNW 8.1 mph - N/A   Partly Cloudy
7:30 PM 69.8 °F 51.8 °F 53% 29.98 in 6.2 mi NW 8.1 mph - N/A   Scattered Clouds
8:00 PM 68.0 °F 51.8 °F 56% 29.98 in 6.2 mi WNW 1.2 mph - N/A   Mostly Cloudy
8:30 PM 68.0 °F 51.8 °F 56% 29.98 in 6.2 mi NW 8.1 mph - N/A   Scattered Clouds
9:00 PM 64.4 °F 53.6 °F 68% 30.01 in 6.2 mi South 4.6 mph - N/A   Scattered Clouds
9:30 PM 64.4 °F 53.6 °F 68% 30.01 in 6.2 mi South 6.9 mph - N/A   Scattered Clouds
10:00 PM 62.6 °F 53.6 °F 72% 30.01 in 6.2 mi SSW 3.5 mph - N/A   Scattered Clouds
10:30 PM 62.6 °F 53.6 °F 72% 30.01 in 6.2 mi Calm Calm - N/A   Scattered Clouds
11:00 PM 62.6 °F 55.4 °F 77% 30.01 in 6.2 mi Variable 2.3 mph - N/A   Scattered Clouds
11:30 PM 62.6 °F 53.6 °F 72% 30.01 in 6.2 mi Variable 2.3 mph - N/A   Scattered Clouds